Change the Weather History Date:

Wednesday, February 6, 2013

  Actual Average Record
Temperature  
Mean Temperature 33 °F 29 °F  
Max Temperature 36 °F 34 °F 47 °F (1977)
Min Temperature 30 °F 25 °F -8 °F (1951)
Degree Days  
Heating Degree Days 32 36  
Month to date heating degree days 183 216  
Since 1 July heating degree days 5437 5076  
Moisture  
Dew Point 30 °F    
Average Humidity 88    
Maximum Humidity 100    
Minimum Humidity 75    
Precipitation  
Precipitation T in 0.15 in 1.22 in (1968)
Month to date precipitation 1.35 0.91  
Year to date precipitation 9.05 6.26  
Snow  
Snow T in 0.70 in 7.50 in (1972)
Month to date snowfall T 4.5  
Since 1 July snowfall 62.0 61.7  
Snow Depth T in    
Sea Level Pressure  
Sea Level Pressure 29.65 in    
Wind  
Wind Speed 3 mph (East)    
Max Wind Speed 15 mph    
Max Gust Speed 18 mph    
Visibility 10 miles    
Events Rain , Snow    
T = Trace of Precipitation, MM = Missing Value Source: NWS Daily Summary

Daily Weather History Graph

Daily Weather History Graph

Search for Another Location

Airport or City:

Trip Planner

Search our weather history database for the weather conditions in past years. The results will help you decide how hot, cold, wet, or windy it might be!

Date:

Astronomy

Feb. 06, 2013 Rise Set
Actual Time 7:51 AM AKST 4:34 PM AKST
Civil Twilight 7:08 AM AKST 5:17 PM AKST
Nautical Twilight 6:20 AM AKST 6:05 PM AKST
Astronomical Twilight 5:34 AM AKST 6:51 PM AKST
Moon 5:11 AM AKST (2/6) 12:32 PM AKST (2/6)
Length of Visible Light 10h 09m
Length of Day
8h 42m
Waning Crescent, 15% of the Moon is Illuminated
Feb 6
Waning Crescent
Feb 9
New
Feb 17
First Quarter
Feb 25
Full
Mar 4
Last Quarter

Hourly Weather History & Observations

Time (AKST) Temp. Windchill Dew Point Humidity Pressure Visibility Wind Dir Wind Speed Gust Speed Precip Events Conditions
12:53 AM 30.9 °F - 30.0 °F 96% 29.56 in 10.0 mi Calm Calm - N/A   Overcast
1:53 AM 30.9 °F - 30.0 °F 96% 29.57 in 10.0 mi Calm Calm - N/A   Overcast
3:53 AM 30.9 °F - 28.9 °F 92% 29.56 in 10.0 mi Calm Calm - N/A   Overcast
4:53 AM 30.9 °F - 30.0 °F 96% 29.57 in 10.0 mi Calm Calm - N/A   Overcast
5:53 AM 30.0 °F 26.5 °F 28.9 °F 96% 29.58 in 10.0 mi ESE 3.5 mph - N/A   Overcast
6:53 AM 30.9 °F - 28.9 °F 92% 29.60 in 10.0 mi Calm Calm - N/A   Overcast
7:53 AM 30.9 °F - 28.9 °F 92% 29.61 in 10.0 mi Calm Calm - N/A   Overcast
8:53 AM 30.9 °F - 28.9 °F 92% 29.62 in 10.0 mi Calm Calm - 0.00 in Snow Light Snow
9:53 AM 32.0 °F 28.7 °F 30.0 °F 92% 29.65 in 9.0 mi ENE 3.5 mph - 0.00 in Snow Light Snow
10:53 AM 33.1 °F - 30.9 °F 92% 29.65 in 10.0 mi Calm Calm - 0.00 in   Overcast
11:53 AM 34.0 °F - 30.0 °F 85% 29.66 in 10.0 mi Calm Calm - N/A   Overcast
12:53 PM 34.0 °F 31.0 °F 30.9 °F 89% 29.66 in 10.0 mi West 3.5 mph - N/A   Overcast
1:53 PM 35.1 °F - 30.0 °F 82% 29.67 in 10.0 mi Calm Calm - 0.00 in   Overcast
2:53 PM 35.6 °F - 30.2 °F 81% 29.67 in 10.0 mi Calm Calm - N/A   Overcast
3:53 PM 35.1 °F - 30.9 °F 85% 29.68 in 10.0 mi Calm Calm - 0.00 in   Overcast
4:53 PM 33.1 °F 28.7 °F 30.0 °F 89% 29.68 in 10.0 mi ENE 4.6 mph - N/A   Overcast
5:53 PM 35.1 °F 32.2 °F 28.0 °F 76% 29.68 in 10.0 mi East 3.5 mph - N/A   Mostly Cloudy
6:53 PM 33.1 °F - 30.9 °F 92% 29.69 in 10.0 mi Calm Calm - N/A   Overcast
7:53 PM 33.1 °F 27.7 °F 30.0 °F 89% 29.69 in 10.0 mi ENE 5.8 mph - 0.00 in Rain , Snow Light Rain
8:53 PM 34.0 °F 25.5 °F 28.9 °F 82% 29.69 in 10.0 mi East 11.5 mph - 0.00 in   Overcast
9:53 PM 34.0 °F 26.0 °F 28.9 °F 82% 29.70 in 10.0 mi East 10.4 mph - N/A   Overcast
10:53 PM 34.0 °F 28.8 °F 28.9 °F 82% 29.72 in 10.0 mi ESE 5.8 mph - N/A   Overcast
11:53 PM 35.1 °F 27.9 °F 28.0 °F 76% 29.72 in 10.0 mi ENE 9.2 mph - N/A   Overcast